Location: Borojevi?i
(45.0486°N, 16.2297°E)
Time: 05:33:04
(UTC+00:00)

CZ-2D R/B - Pass Details

Date: 08 August 2020
Orbit: 792 x 845 km, 98.7° (Epoch: 19 September)

Event Time Altitude Azimuth Distance (km) Brightness Sun altitude
Rises 23:46:52 0° 22° (NNE) 3,412 6.6 -28.3°
Reaches altitude 10° 23:49:29 10° 32° (NNE) 2,474 5.5 -28.2°
Maximum altitude 23:54:25 33° 96° (E) 1,388 3.3 -28.0°
Enters shadow 23:54:54 33° 106° (ESE) 1,401 3.3 -27.9°
